Charlotte, NC

7:42 PM EST on December 05, 2019 (GMT -0500)
Charlotte-Douglas International

Weather History for KCLT - November, 2019

Change the Weather History Date:

Sunday, November 17, 2019

  Actual Average Record
Temperature  
Mean Temperature 50 °F 50 °F  
Max Temperature 59 °F 62 °F 84 °F (1958)
Min Temperature 40 °F 39 °F 20 °F (1883)
Degree Days  
Heating Degree Days 15 15  
Month to date heating degree days 297 210  
Since 1 July heating degree days 354 416  
Cooling Degree Days 0 0  
Month to date cooling degree days 0 0  
Year to date cooling degree days 2254 1513  
Moisture  
Dew Point 34 °F    
Average Humidity 62    
Maximum Humidity 76    
Minimum Humidity 47    
Precipitation  
Precipitation 0.00 in 0.11 in 1.90 in (1968)
Month to date precipitation 1.29 1.72  
Year to date precipitation 46.62 36.96  
Snow  
Snow 0.00 in 0.00 in 0.00 in ()
Month to date snowfall 0.0 0.0  
Since 1 July snowfall T 0.0  
Since 1 September snowfall 0.0 0.0  
Snow Depth 0.00 in    
Sea Level Pressure  
Sea Level Pressure 30.03 in    
Wind  
Wind Speed 10 mph (NNE)    
Max Wind Speed 21 mph    
Max Gust Speed 29 mph    
Visibility 10 miles    
Events      
T = Trace of Precipitation, MM = Missing Value Source: NWS Daily Summary

Daily Weather History Graph

Daily Weather History Graph

Search for Another Location

Airport or City:

Astronomy

Nov. 17, 2019 Rise Set
Actual Time 7:00 AM EST 5:16 PM EST
Civil Twilight 6:33 AM EST 5:43 PM EST
Nautical Twilight 6:02 AM EST 6:14 PM EST
Astronomical Twilight 5:32 AM EST 6:44 PM EST
Moon 9:54 PM EST (11/17) 11:41 AM EST (11/17)
Length of Visible Light 11h 10m
Length of Day
10h 16m
Waning Gibbous, 73% of the Moon is Illuminated
Nov 17
Waning Gibbous
Nov 19
Last Quarter
Nov 26
New
Dec 4
First Quarter
Dec 12
Full

Hourly Weather History & Observations

Time (EST) Temp. Windchill Dew Point Humidity Pressure Visibility Wind Dir Wind Speed Gust Speed Precip Events Conditions
1:52 AM 43.0 °F 36.0 °F 27.0 °F 53% 30.11 in 10.0 mi North 13.8 mph 25.3 mph N/A   Overcast
2:52 AM 42.1 °F 34.5 °F 28.0 °F 58% 30.11 in 10.0 mi NNE 15.0 mph 24.2 mph N/A   Overcast
3:52 AM 42.1 °F 34.9 °F 28.0 °F 58% 30.11 in 10.0 mi NNE 13.8 mph - N/A   Overcast
5:52 AM 39.9 °F 32.5 °F 28.0 °F 63% 30.11 in 10.0 mi North 12.7 mph 21.9 mph N/A   Scattered Clouds
6:52 AM 41.0 °F 33.5 °F 28.9 °F 62% 30.11 in 10.0 mi North 13.8 mph - N/A   Mostly Cloudy
7:52 AM 42.1 °F 35.7 °F 30.0 °F 62% 30.12 in 10.0 mi NNE 11.5 mph - N/A   Mostly Cloudy
9:52 AM 48.0 °F - 33.1 °F 56% 30.12 in 10.0 mi North 10.4 mph - N/A   Scattered Clouds
10:52 AM 52.0 °F - 34.0 °F 50% 30.10 in 10.0 mi NNE 10.4 mph - N/A   Scattered Clouds
11:52 AM 54.0 °F - 36.0 °F 51% 30.07 in 10.0 mi NE 12.7 mph - N/A   Scattered Clouds
12:52 PM 55.9 °F - 36.0 °F 47% 30.02 in 10.0 mi NNE 8.1 mph - N/A   Partly Cloudy
1:52 PM 57.9 °F - 37.9 °F 47% 29.98 in 10.0 mi NNE 9.2 mph - N/A   Partly Cloudy
2:52 PM 59.0 °F - 39.0 °F 48% 29.97 in 10.0 mi North 9.2 mph - N/A   Partly Cloudy
3:52 PM 57.9 °F - 37.9 °F 47% 29.96 in 10.0 mi North 8.1 mph - N/A   Partly Cloudy
4:52 PM 55.0 °F - 37.9 °F 53% 29.95 in 10.0 mi NNE 9.2 mph - N/A   Scattered Clouds
5:52 PM 50.0 °F - 37.9 °F 63% 29.96 in 10.0 mi NNE 5.8 mph - N/A   Partly Cloudy
6:52 PM 51.1 °F - 37.9 °F 61% 29.95 in 10.0 mi NNE 6.9 mph - N/A   Partly Cloudy
7:52 PM 48.9 °F - 39.0 °F 69% 29.96 in 10.0 mi NNE 6.9 mph - N/A   Mostly Cloudy
8:52 PM 48.9 °F - 37.9 °F 66% 29.97 in 10.0 mi NNE 6.9 mph - N/A   Mostly Cloudy
9:52 PM 46.9 °F - 37.9 °F 71% 29.95 in 10.0 mi NNE 10.4 mph - N/A   Mostly Cloudy
10:52 PM 45.0 °F 41.8 °F 37.9 °F 76% 29.94 in 10.0 mi North 5.8 mph - N/A   Mostly Cloudy
11:52 PM 45.0 °F 39.7 °F 37.9 °F 76% 29.92 in 10.0 mi NNE 10.4 mph - N/A   Overcast